Cloud_Cover
100 94 13 10 4 2 4 4 0 14 90 100 97 0 25 2 0 45 29 1 0 12 1 0 0 0 0 0 0 0 0 0 0 0 0 0 0 0 0 0 0 0 0 3 0 0 0 0 0
23 9 5 3 0 4 27 3 5 5 7 83 100 100 76 5 1 0 11 0 0 0 60 8 25 0 0 0 0 2 0 0 0 0 0 0 0 0 0 0 5 2 4 5 0 0 0 0 0
43 13 5 5 5 3 2 5 5 34 5 5 17 15 5 5 3 4 2 0 0 21 28 35 15 2 16 2 0 0 50 2 0 6 11 0 0 0 1 17 62 13 5 5 5 5 1 0 0
67 11 31 44 6 44 5 5 5 5 51 5 5 5 5 5 5 8 27 36 39 67 73 30 15 10 25 63 11 48 100 30 5 0 13 17 0 0 0 7 100 100 84 5 5 5 5 0 1
38 59 19 13 11 64 14 8 16 5 38 14 5 21 5 5 15 69 42 33 100 88 90 68 60 90 57 36 47 100 100 100 65 19 0 0 0 1 0 0 5 95 100 100 15 5 5 5 38
100 100 78 9 9 52 43 16 5 5 5 11 31 65 21 5 8 6 33 78 79 97 100 100 100 100 100 58 85 100 100 100 100 100 1 0 0 18 7 22 5 5 34 100 100 57 82 91 99
100 100 100 100 80 99 87 100 56 5 6 8 5 25 10 5 5 5 5 13 21 90 64 80 67 100 100 100 84 89 100 100 100 100 98 75 6 1 2 36 99 100 8 52 100 100 100 100 100
80 93 96 99 98 76 51 10 35 19 5 5 5 7 95 5 5 6 23 54 47 97 100 50 33 91 93 73 46 97 100 60 44 81 100 100 96 8 4 5 66 100 76 5 74 100 100 100 67
42 95 53 78 93 13 14 14 9 6 5 41 76 5 26 6 13 55 84 51 5 22 37 50 7 4 5 20 44 83 100 99 82 100 98 88 82 100 95 100 100 92 100 100 71 73 100 96 38
84 96 23 28 6 33 33 5 88 8 5 96 100 93 7 5 5 5 5 62 5 5 6 8 5 1 0 0 0 4 5 41 100 96 56 78 59 94 98 100 100 100 100 100 48 84 94 99 58
100 74 88 47 87 31 97 68 39 7 5 5 100 40 5 5 5 5 5 5 13 13 5 6 5 5 1 0 0 0 5 6 49 67 100 100 84 72 70 39 100 100 100 100 100 94 97 100 100
5 69 98 100 100 99 80 20 14 6 92 52 19 31 5 5 5 5 5 5 5 5 5 5 5 5 5 5 5 4 4 5 5 5 12 5 12 37 40 47 45 96 100 100 100 100 100 94 100
9 62 54 100 100 75 48 8 20 82 11 21 98 78 33 5 5 5 5 5 5 5 5 5 5 5 3 3 5 5 5 2 18 34 5 46 37 11 4 0 37 78 31 100 100 100 100 100 100
24 15 70 83 69 71 5 38 31 77 35 5 5 5 5 5 5 5 5 9 5 5 5 5 16 5 5 6 5 5 7 5 5 8 5 6 6 11 5 5 0 4 11 40 54 79 100 100 100
100 40 6 7 7 36 5 6 85 93 92 98 32 5 5 5 5 39 5 5 9 5 6 5 24 54 77 69 85 53 78 85 92 97 73 5 3 0 5 5 2 0 2 15 58 32 25 69 100
32 13 43 64 13 45 100 12 100 59 78 52 12 21 14 19 19 10 8 52 12 5 5 5 18 63 76 66 53 34 66 47 10 17 10 3 4 0 0 0 1 2 26 40 100 20 7 5 56
5 14 17 20 12 57 25 15 69 100 100 100 95 96 83 41 6 5 12 19 48 29 20 23 26 42 37 40 70 87 76 12 5 1 0 0 0 0 0 0 0 0 0 0 2 44 5 2 5
5 19 33 79 97 99 100 100 82 100 100 29 12 67 70 92 100 100 100 100 100 100 100 100 100 100 97 45 5 5 0 0 0 0 0 0 0 0 0 0 0 0 0 0 0 0 5 2 2
52 96 100 41 8 90 100 100 100 44 100 100 100 100 100 100 100 100 100 100 100 100 100 100 79 5 3 0 0 0 0 0 0 0 0 0 0 0 17 0 0 0 0 0 0 0 0 0 0
10 24 88 59 7 5 39 55 82 6 56 26 12 6 12 8 7 5 5 5 4 4 3 3 0 0 0 0 0 0 1 0 1 1 1 1 1 22 37 42 43 30 22 5 0 0 0 0 0
5 5 5 14 5 5 5 72 96 85 94 100 100 100 77 72 29 4 4 4 1 0 0 0 0 2 5 5 5 5 5 5 5 5 5 6 47 59 64 98 100 100 100 92 57 21 14 2 0
31 12 72 5 5 8 65 97 100 100 100 84 84 80 6 5 5 0 0 0 0 0 0 5 5 5 5 5 5 5 5 6 14 39 57 82 96 100 100 100 100 100 100 99 43 67 95 60 6
100 100 71 45 5 5 92 49 100 99 97 11 85 97 11 5 5 4 3 5 4 4 5 5 5 5 5 5 7 6 18 49 70 91 100 100 100 100 100 100 100 100 100 100 100 100 67 76 87
100 100 100 100 89 16 100 100 100 100 85 5 5 2 5 5 4 0 0 0 0 3 5 5 5 5 5 5 11 30 64 88 97 100 100 100 100 100 100 100 100 100 95 90 100 100 100 100 100
100 100 100 100 100 100 100 100 100 96 8 31 79 67 5 0 0 0 0 0 0 4 5 5 5 5 5 5 36 49 72 88 100 100 100 100 100 100 100 100 100 100 100 100 100 100 100 100 100
100 100 100 100 100 100 82 66 100 92 48 5 99 10 0 0 0 0 0 0 0 0 0 0 3 3 5 13 58 68 83 95 100 100 100 100 100 100 100 100 100 100 100 100 100 100 100 100 100
100 100 100 100 100 100 100 100 100 60 70 99 12 4 0 0 0 0 0 0 0 0 0 0 0 5 5 44 68 92 96 100 100 100 100 100 100 100 100 100 100 100 100 100 100 100 100 100 100
100 100 100 100 100 100 86 93 100 100 98 6 5 1 4 1 0 0 2 3 0 0 0 0 0 5 56 61 82 100 100 100 100 100 100 100 100 100 100 100 100 100 100 100 100 100 100 100 100
97 100 100 100 100 100 92 55 100 92 23 34 17 5 4 49 5 5 5 4 0 1 1 5 5 14 96 88 100 100 100 100 100 100 100 100 100 100 100 100 100 100 100 100 100 100 100 100 100
100 100 100 100 100 100 100 48 100 22 44 14 5 4 5 5 3 27 45 22 14 32 20 14 5 64 79 100 100 100 100 100 100 100 100 100 100 100 100 100 100 100 100 100 100 100 100 100 100